[[{"header":{"parameterUnit":"m.s-1","parameterCategory":1,"la1":30.2991,"la2":30.254,"lo1":-89.0895,"lo2":-89.0444,"dy":0.0017,"dx":0.0017,"nx":28,"ny":28,"refTime":"2024-06-24T03:00:00:Z","depth":0,"parameterNumber":2,"parameterNumberName":"U-component_of_WINDS"},"data":[0,0,0,0,0,0,0,0,0,0,0,0,0,0,0,0,0,0,0,0,0,0,0,0,0,0,0,0,0,0,0,0,0,0,0,0,0,0,0,0,0,0,0,0,0,0,0,0,0,0,0,0,0,0,0,0,0,0,3.5682,3.5683,0,3.5806,3.5808,3.5809,3.5775,3.5773,3.577,3.5768,3.5898,3.5903,3.5909,0,0,0,0,0,0,0,0,0,0,0,0,0,3.5415,3.542,3.5682,3.5683,3.5685,3.5806,3.5808,3.5809,3.5776,3.5773,3.577,3.5767,3.5896,3.5903,3.591,0,0,0,0,0,0,0,0,0,0,0,0,0,3.5534,3.5421,3.5681,3.5682,3.5684,3.5806,3.5808,3.581,3.5776,3.5773,3.5769,3.5765,3.5894,3.5902,3.5911,3.604,0,0,3.5937,3.5941,0,0,0,0,0,0,0,0,3.5527,3.5544,3.5681,3.5683,3.5684,3.5771,3.5761,3.5887,3.5777,3.5741,3.5768,3.5763,3.5859,3.587,3.5902,3.6046,3.6051,3.5938,3.5943,3.5947,3.5949,0,0,0,0,0,0,0,3.5519,3.5538,3.5731,3.5683,3.5685,3.5677,3.569,3.5785,3.582,3.5744,3.5742,3.5757,3.5859,3.5894,3.5905,3.6053,3.5938,3.5945,3.5951,3.5954,3.6306,3.631,0,0,0,0,0,0,3.5509,3.5532,3.5727,3.5735,3.5595,3.5685,3.5699,3.5747,3.5819,3.5826,3.576,3.5755,3.5881,3.5895,3.5909,3.6063,3.5947,3.5955,3.596,3.6302,3.6307,3.6311,0,0,0,0,0,0,3.5504,3.5527,3.5722,3.5633,3.5657,3.5693,3.5748,3.5752,3.5786,3.5831,3.5837,3.5789,3.5878,3.5897,3.6007,3.6067,3.5959,3.5967,3.6297,3.6304,3.6309,3.6373,0,0,0,0,0,0,3.5496,3.5525,3.5575,3.5634,3.5662,3.5818,3.5752,3.5757,3.5801,3.5795,3.5859,3.5866,3.5877,3.5994,3.6015,3.6077,3.5974,3.6292,3.63,3.6307,3.6365,3.638,3.6393,0,0,0,0,0,3.5487,3.5589,3.5578,3.5601,3.5724,3.5821,3.5837,3.5846,3.5806,3.5856,3.5884,3.5864,3.6057,3.6005,3.6029,3.6094,3.6288,3.6298,3.6307,3.6359,3.6377,3.6393,0,0,0,0,0,0,3.5538,3.5597,3.5585,3.5709,3.576,3.5815,3.5879,3.5866,3.593,3.5922,3.5931,3.5946,3.6058,3.6087,3.6029,3.6222,3.6167,3.6181,3.6198,3.6216,3.6229,3.622,3.5981,0,0,0,0,0,3.5563,3.5636,3.5684,3.5789,3.5815,3.5843,3.5885,3.5887,3.5941,3.5963,3.5999,3.6052,3.6124,3.6172,3.6241,3.6369,3.6382,3.6426,3.6439,3.6451,3.6463,3.653,3.655,3.6342,3.6342,3.6342,0,0,3.5617,3.5658,3.5704,3.5801,3.584,3.5915,3.5861,3.5944,3.6,3.5976,3.608,3.6109,3.6169,3.6287,3.6342,3.6315,3.6523,3.6463,3.6471,3.6477,3.6542,3.6562,3.6579,3.6348,3.6347,3.6346,0,0,3.5753,3.5793,3.5883,3.5923,3.5983,3.6,3.6022,3.6079,3.6096,3.6201,3.6184,3.625,3.6375,3.6417,3.6455,3.6604,3.6588,3.6627,3.6699,3.6765,3.6781,3.6795,3.6847,3.6865,3.6639,3.6639,3.6639,0,3.5813,3.5925,3.5931,3.6015,3.6057,3.6037,3.6127,3.6167,3.6247,3.6276,3.6245,3.6399,3.6439,3.6566,3.6601,3.6634,3.6658,3.6619,3.6778,3.6793,3.6806,3.6855,3.6875,3.6643,3.6643,3.6642,3.6642,0,3.5994,3.6072,3.6138,3.6214,3.6263,3.635,3.6369,3.6418,3.6416,3.6436,3.6542,3.6588,3.6664,3.6695,3.6694,3.6821,3.6803,3.6775,3.672,3.683,3.6876,3.6895,3.6649,3.6648,3.6647,3.6645,0,0,3.6167,3.6243,3.6267,3.63,3.6364,3.6424,3.6509,3.6583,3.6624,3.668,3.675,3.6855,3.6828,3.6872,3.6875,3.6933,3.7045,3.6898,3.6899,3.6922,3.7186,3.7205,3.7227,3.7035,3.7038,3.7041,3.718,0,3.6308,3.6456,3.6463,3.6599,3.667,3.665,3.6724,3.6771,3.6791,3.6854,3.6877,3.695,3.6911,3.6937,3.6993,3.702,3.7098,3.701,3.71,3.7103,3.7084,3.7252,3.7273,3.7402,3.7198,3.7202,3.7204,0,3.6492,3.655,3.6692,3.6743,3.6773,3.6839,3.6906,3.6967,3.7018,3.7029,3.7076,3.707,3.7156,3.7098,3.7217,3.7156,3.7193,3.7212,3.7217,3.7225,3.716,3.7263,3.7444,3.7463,3.7233,3.723,3.7228,0,3.6601,3.6716,3.6815,3.6844,3.6906,3.6953,3.6981,3.7029,3.7072,3.713,3.7158,3.7226,3.7263,3.7316,3.7328,3.7285,3.7446,3.739,3.7457,3.7456,3.7491,3.7489,3.7679,3.7517,3.7517,3.7516,3.7516,0,3.6757,3.6844,3.6865,3.6926,3.7022,3.7029,3.7124,3.7149,3.7191,3.7256,3.7244,3.7306,3.7319,3.7383,3.7394,3.7489,3.7506,3.7516,3.7518,3.7517,3.7515,3.7541,3.7532,3.7522,3.752,3.7519,3.7519,0,3.6896,3.6913,3.7019,3.7068,3.7083,3.7152,3.7193,3.7251,3.7269,3.7351,3.7371,3.74,3.7474,3.7491,3.7581,3.7587,3.7699,3.7693,3.7681,3.7681,3.7746,3.7739,3.7959,3.7987,3.7808,3.7809,3.7811,0,3.6993,3.7059,3.7115,3.7156,3.7186,3.7254,3.7297,3.7306,3.7351,3.7413,3.7463,3.7535,3.7594,3.7713,3.7742,3.7809,3.7804,3.7876,3.7814,3.781,3.7803,3.7798,3.7804,3.7888,3.789,3.7891,3.7892,0,3.7164,3.7168,3.723,3.7294,3.7345,3.7397,3.7446,3.7481,3.7496,3.7547,3.7622,3.7667,3.7756,3.7828,3.7895,3.7924,3.7911,3.7912,3.793,3.793,3.7919,3.7924,3.7712,3.7907,3.7905,3.7904,3.7903,3.7903,3.7284,3.7341,3.7388,3.7456,3.7493,3.7539,3.7594,3.7618,3.768,3.7753,3.7754,3.7835,3.7883,3.7971,3.8004,3.8067,3.8045,3.8073,3.808,3.8086,3.8091,3.791,3.808,3.8079,3.8079,3.8079,3.8078,0,3.7452,3.7481,3.7544,3.7611,3.7665,3.7646,3.7699,3.7745,3.7816,3.7861,3.7918,3.8002,3.8071,3.8104,3.8172,3.8216,3.8211,3.8233,3.823,3.8236,3.8108,3.8084,3.8235,3.8235,3.8235,3.8235,3.8235,3.8235,3.7546,3.764,3.765,3.7762,3.779,3.7868,3.7899,3.7941,3.7976,3.8071,3.8127,3.8148,3.8188,3.8258,3.832,3.8327,3.8352,3.8377,3.8382,3.8261,3.8245,3.823,3.8208,3.8383,3.8383,3.8505,3.8506,3.8507]},{"header":{"parameterUnit":"m.s-1","parameterCategory":1,"la1":30.2991,"la2":30.254,"lo1":-89.0895,"lo2":-89.0444,"dy":0.0017,"dx":0.0017,"nx":28,"ny":28,"refTime":"2024-06-24T03:00:00:Z","depth":0,"parameterNumber":3,"parameterNumberName":"V-component_of_WINDS"},"data":[0,0,0,0,0,0,0,0,0,0,0,0,0,0,0,0,0,0,0,0,0,0,0,0,0,0,0,0,0,0,0,0,0,0,0,0,0,0,0,0,0,0,0,0,0,0,0,0,0,0,0,0,0,0,0,0,0,0,2.6256,2.6257,0,2.636,2.6362,2.6363,2.6372,2.6371,2.637,2.6369,2.6471,2.6475,2.6479,0,0,0,0,0,0,0,0,0,0,0,0,0,2.6061,2.6064,2.6256,2.6258,2.6259,2.636,2.6362,2.6363,2.6372,2.6371,2.6369,2.6368,2.647,2.6474,2.6479,0,0,0,0,0,0,0,0,0,0,0,0,0,2.6153,2.6065,2.6256,2.6276,2.6278,2.636,2.6362,2.6363,2.6372,2.6371,2.6369,2.6367,2.6469,2.6474,2.648,2.6547,0,0,2.6497,2.6499,0,0,0,0,0,0,0,0,2.6148,2.616,2.6271,2.6274,2.6278,2.6352,2.633,2.6425,2.6373,2.6337,2.6369,2.6367,2.6432,2.6441,2.6464,2.6552,2.6556,2.6497,2.6501,2.6503,2.6505,0,0,0,0,0,0,0,2.6141,2.6156,2.6297,2.6273,2.6277,2.6278,2.6289,2.6348,2.6392,2.634,2.6341,2.6353,2.6434,2.6459,2.6466,2.6558,2.6497,2.6502,2.6506,2.6508,2.6705,2.6707,0,0,0,0,0,0,2.6132,2.615,2.6294,2.63,2.6208,2.6283,2.6295,2.6329,2.6392,2.64,2.6354,2.6353,2.645,2.646,2.647,2.6553,2.6503,2.6508,2.6512,2.6703,2.6705,2.6707,0,0,0,0,0,0,2.6128,2.6145,2.629,2.6226,2.6244,2.6288,2.6326,2.6332,2.6357,2.6403,2.641,2.6372,2.6449,2.6462,2.6528,2.6556,2.6511,2.6516,2.6701,2.6704,2.6706,2.6718,0,0,0,0,0,0,2.6122,2.6143,2.6171,2.6226,2.6248,2.6347,2.6328,2.6336,2.6367,2.6367,2.6421,2.6429,2.6449,2.6519,2.6533,2.6563,2.652,2.6698,2.6702,2.6705,2.6716,2.6721,2.6726,0,0,0,0,0,2.6115,2.6169,2.6172,2.6189,2.6283,2.6349,2.6361,2.6384,2.637,2.6397,2.6426,2.6427,2.6551,2.6526,2.6542,2.6574,2.6697,2.6701,2.6705,2.6713,2.672,2.6726,0,0,0,0,0,0,2.6115,2.6177,2.6181,2.6255,2.6297,2.6351,2.6386,2.6391,2.6437,2.6434,2.6459,2.6471,2.6536,2.6561,2.6533,2.6642,2.6622,2.6629,2.6623,2.663,2.6635,2.6627,2.6525,0,0,0,0,0,2.6124,2.6173,2.6224,2.6285,2.6306,2.6342,2.6372,2.6386,2.6429,2.6447,2.6481,2.6522,2.657,2.6601,2.6648,2.6719,2.673,2.6749,2.6754,2.6758,2.6764,2.6802,2.681,2.6721,2.6721,2.6721,0,0,2.6142,2.6182,2.6212,2.6286,2.632,2.6369,2.6357,2.641,2.6446,2.6454,2.6519,2.6545,2.6592,2.6661,2.6693,2.6684,2.6791,2.6763,2.6766,2.677,2.6807,2.6815,2.6823,2.6724,2.6723,2.6723,0,0,2.6201,2.6237,2.629,2.6325,2.6377,2.64,2.6413,2.6466,2.6484,2.6549,2.6556,2.6598,2.6681,2.6714,2.6742,2.6811,2.6814,2.6826,2.6853,2.689,2.6897,2.6903,2.6927,2.6935,2.6832,2.6832,2.6832,0,2.6216,2.6293,2.6317,2.637,2.6402,2.6412,2.6466,2.6497,2.6561,2.6582,2.6572,2.6675,2.6708,2.6783,2.68,2.6823,2.6837,2.682,2.6894,2.6901,2.6907,2.693,2.6939,2.6833,2.6833,2.6833,2.6833,0,2.6309,2.6361,2.6398,2.6461,2.6497,2.655,2.658,2.6613,2.6623,2.6647,2.6712,2.6752,2.6807,2.6825,2.6836,2.6902,2.6895,2.6889,2.687,2.6916,2.6938,2.6947,2.6834,2.6834,2.6834,2.6834,0,0,2.6371,2.6446,2.6459,2.6487,2.6544,2.6585,2.6637,2.6691,2.6718,2.6762,2.6805,2.6874,2.6869,2.69,2.6914,2.6946,2.6997,2.6936,2.6938,2.6946,2.7071,2.7075,2.7085,2.6999,2.7001,2.7003,2.7067,0,2.6436,2.6531,2.6554,2.6635,2.6682,2.6692,2.6738,2.6777,2.68,2.6843,2.6868,2.6916,2.6906,2.6925,2.6957,2.6984,2.7023,2.698,2.7039,2.704,2.7026,2.7097,2.7102,2.7161,2.7076,2.7078,2.7079,0,2.6524,2.657,2.6656,2.6706,2.6727,2.6768,2.6818,2.686,2.6903,2.6918,2.6952,2.6963,2.7016,2.6994,2.7066,2.7037,2.7062,2.7078,2.7081,2.7087,2.7062,2.7104,2.718,2.7189,2.7092,2.7091,2.709,0,2.656,2.6643,2.6705,2.6729,2.6789,2.6817,2.6843,2.6885,2.6916,2.696,2.6979,2.7028,2.7055,2.7092,2.7114,2.7097,2.7185,2.7165,2.7197,2.7196,2.7215,2.7214,2.7296,2.7232,2.7232,2.7231,2.7231,0,2.6629,2.6681,2.6722,2.676,2.6817,2.6842,2.6898,2.6924,2.6961,2.7003,2.7014,2.7053,2.7081,2.7123,2.714,2.7197,2.7209,2.7221,2.7225,2.722,2.7219,2.7237,2.7233,2.7234,2.7233,2.7233,2.7232,0,2.6679,2.6708,2.6776,2.6828,2.6841,2.6882,2.6925,2.6961,2.6984,2.7037,2.7051,2.7087,2.7137,2.7163,2.7225,2.7237,2.73,2.7302,2.7286,2.7288,2.7318,2.7315,2.7415,2.7429,2.7356,2.7356,2.7357,0,2.6721,2.6761,2.6817,2.6846,2.6873,2.692,2.6952,2.6977,2.7009,2.7061,2.7091,2.7141,2.7184,2.7263,2.7293,2.7341,2.7343,2.7375,2.735,2.7344,2.7343,2.734,2.7344,2.7379,2.738,2.738,2.7381,0,2.6792,2.6805,2.6851,2.6901,2.6938,2.6979,2.7019,2.7042,2.7074,2.7109,2.7161,2.7193,2.7257,2.7307,2.7356,2.7381,2.7386,2.7388,2.7398,2.7393,2.7382,2.7388,2.7297,2.7386,2.7385,2.7385,2.7385,2.7385,2.6839,2.6875,2.6919,2.6969,2.7002,2.7039,2.7076,2.7104,2.7148,2.7202,2.7214,2.7268,2.7309,2.7377,2.7403,2.7445,2.7438,2.7452,2.7456,2.7459,2.746,2.7376,2.7454,2.7454,2.7454,2.7453,2.7453,0,2.691,2.6939,2.6985,2.7041,2.708,2.7082,2.7126,2.7158,2.7207,2.7245,2.7286,2.7345,2.7393,2.7428,2.7476,2.7503,2.7506,2.7515,2.7513,2.7518,2.7464,2.745,2.7511,2.7511,2.7511,2.7511,2.7511,2.7511,2.6952,2.7012,2.703,2.7106,2.7134,2.7188,2.7213,2.7247,2.7278,2.7343,2.7384,2.7406,2.7442,2.7493,2.7537,2.7546,2.7563,2.7571,2.758,2.7528,2.7522,2.7516,2.7503,2.7575,2.7575,2.763,2.7631,2.7631]}]]